Home > Weather > Rancho Cucamonga > Past weeks

Flag for USA Past Weather in Rancho Cucamonga, California, USA — Yesterday and Last 2 Weeks

Now
69 °F

Clear.


Feels Like: 69 °F
Forecast: 70 / 98 °F
Wind: No wind

Location: Ontario International Airport

Current Time: Jun 27, 2016 at 4:30:47 AM

Latest Report: Jun 27, 2016 at 3:53 AM


Visibility: 5 mi

Pressure: 29.85 "Hg

Humidity: 79%

Dew Point: 62 °F

Location of Rancho CucamongaLocation

Past Weather in Rancho Cucamonga — Graph

°F

Rancho Cucamonga Temperature Yesterday

Maximum temperature yesterday: 100 °F (at 2:53 PM)
Minimum temperature yesterday: 63 °F (at 4:53 AM)
Average temperature yesterday: 79 °F

High & Low Weather Summary for the Past Weeks

 TemperatureHumidityPressure
High111 °F (Jun 20, 12:53 PM)90% (Jun 14, 4:53 AM)30.11 "Hg (Jun 14, 4:53 AM)
Low55 °F (Jun 14, 4:53 AM)3% (Jun 19, 1:53 PM)29.76 "Hg (Jun 25, 4:53 PM)
Average75 °F49%29.91 "Hg
* Reported Jun 12 2:53 AM — Jun 27 2:53 AM, Rancho Cucamonga, Weather by CustomWeather, © 2016

Note: Actual official high and low records may vary slightly from our data, if they occured in-between our weather recording intervals... More about our weather records

Advertising

Rancho Cucamonga Weather History for the Previous 24 Hours

Scroll right to see more
 ConditionsComfort  
Time TempWeatherWind HumidityBarometerVisibility
2:53 AM
Mon, Jun 27
70 °FClear.No wind76%29.83 "Hg5 mi
1:53 AM71 °FClear.No wind73%29.84 "Hg6 mi
12:53 AM71 °FClear.No wind73%29.85 "Hg7 mi
11:53 PM
Sun, Jun 26
72 °FClear.6 mph71%29.86 "Hg9 mi
10:53 PM72 °FClear.No wind71%29.87 "Hg9 mi
9:53 PM73 °FClear.7 mph69%29.87 "Hg9 mi
8:53 PM74 °FSunny.8 mph67%29.86 "Hg10 mi
7:53 PM77 °FSunny.9 mph60%29.85 "Hg10 mi
6:53 PM83 °FPassing clouds.12 mph50%29.82 "Hg10 mi
5:53 PM89 °FPassing clouds.15 mph41%29.80 "Hg10 mi
4:53 PM95 °FPassing clouds.17 mph32%29.79 "Hg10 mi
3:53 PM98 °FPassing clouds.16 mph27%29.78 "Hg10 mi
2:53 PM100 °FPassing clouds.16 mph25%29.79 "Hg10 mi
1:53 PM99 °FPassing clouds.15 mph23%29.81 "Hg10 mi
12:53 PM98 °FPassing clouds.13 mph24%29.82 "Hg10 mi
11:53 AM95 °FPassing clouds.8 mph25%29.83 "Hg10 mi
10:53 AM88 °FSunny.6 mph35%29.84 "Hg10 mi
9:53 AM81 °FSunny.5 mph47%29.85 "Hg10 mi
8:53 AM74 °FSunny.3 mph60%29.85 "Hg10 mi
7:53 AM70 °FSunny.No wind68%29.85 "Hg10 mi
6:53 AM66 °FSunny.No wind78%29.84 "Hg10 mi
5:53 AM64 °FClear.No wind81%29.83 "Hg10 mi
4:53 AM63 °FClear.3 mph84%29.82 "Hg7 mi
Weather by CustomWeather, © 2016

See weather overviewHow to use our weather pages